{"data":{"norad_id":48979,"intl_designator":"2021-060N","name":"ONEWEB-0261","alt_names":[],"object_type":"PAYLOAD","status":"ACTIVE","operator":null,"country":"UK","launch_date":"2021-07-01","launch_site_code":"VOSTO","launch_vehicle":null,"mission":null,"orbit_class":"UNKNOWN","rcs_meters":null,"size_class":null,"mass_kg":null,"dimensions":null,"purposes":["comms"],"wikipedia_slug":null,"has_3d_model":false,"image_url":null,"decayed_at":null,"tle_current":{"epoch":"2026-05-25T04:25:09.571584Z","epoch_age_seconds":65980,"freshness":"FRESH","line1":"1 48979U 21060N   26145.18413856  .00000012  00000+0 -29494-5 0  9996","line2":"2 48979  87.9103 233.3513 0001795  91.6772 268.4565 13.16595168236632","mean_motion":13.16595168,"eccentricity":0.0001795,"inclination_deg":87.9103,"raan_deg":233.3513,"arg_perigee_deg":91.6772,"mean_anomaly_deg":268.4565,"bstar":-2.9494e-6,"rev_number":23663,"period_min":109.37302786759,"perigee_km":1196.3933001169,"apogee_km":1199.1130446888,"semimajor_km":7575.8901724029,"source":"CELESTRAK","updated_at":"2026-05-25T13:38:22.452123Z"}}}